This is the latest recevied weather packets stored in our database for station/object W4FXD. If no packets are shown the sender has not sent any weather packets the latest 10 day(s).
| Time | Temp. | Humidity | Pressure | Rain* | Wind** | Luminosity | Snow |
|---|---|---|---|---|---|---|---|
| 1778085583 | 18.33° C | 98% | 1012.7 hPa | 0 mm | - | 206 W/m² | - |
| 1778085278 | 18.33° C | 99% | 1012.4 hPa | 0 mm | - | 167 W/m² | - |
| 1778084972 | 18.33° C | 99% | 1012.8 hPa | 0 mm | - | 302 W/m² | - |
| 1778084671 | 18.33° C | 99% | 1012.4 hPa | 0 mm | - | 191 W/m² | - |
| 1778084368 | 18.33° C | 99% | 1012.7 hPa | 0 mm | - | 242 W/m² | - |
| 1778084066 | 17.78° C | 99% | 1012.6 hPa | 0 mm | - | 275 W/m² | - |
| 1778083763 | 17.78° C | 99% | 1012.4 hPa | 0 mm | - | 173 W/m² | - |
| 1778083461 | 17.78° C | 99% | 1012.9 hPa | 0 mm | - | 228 W/m² | - |
| 1778083158 | 17.78° C | 99% | 1012.6 hPa | 0 mm | - | 179 W/m² | - |
| 1778082855 | 17.78° C | 99% | 1012.6 hPa | 0 mm | - | 180 W/m² | - |
| 1778081737 | 17.22° C | 99% | 1012.9 hPa | 0 mm | - | 61 W/m² | - |
| 1778081434 | 17.22° C | 99% | 1013 hPa | 0 mm | - | 72 W/m² | - |
| 1778081131 | 17.22° C | 99% | 1012.6 hPa | 0 mm | - | 106 W/m² | - |
| 1778080829 | 17.22° C | 99% | 1012.9 hPa | 0 mm | - | 99 W/m² | - |
| 1778080527 | 17.22° C | 99% | 1012.8 hPa | 0 mm | - | 110 W/m² | - |
| 1778080224 | 17.22° C | 99% | 1013.2 hPa | 1.27 mm | - | 147 W/m² | - |
| 1778079920 | 16.67° C | 99% | 1012.7 hPa | 1.27 mm | - | 92 W/m² | - |
| 1778079617 | 16.67° C | 99% | 1013.2 hPa | 1.78 mm | - | 55 W/m² | - |
| 1778079314 | 16.67° C | 99% | 1013.3 hPa | 1.78 mm | - | 67 W/m² | - |
| 1778079011 | 16.67° C | 99% | 1013.2 hPa | 1.27 mm | - | 71 W/m² | - |
| 1778078708 | 16.67° C | 99% | 1013.3 hPa | 3.05 mm | - | 69 W/m² | - |
| 1778078405 | 16.67° C | 99% | 1013.5 hPa | 3.05 mm | - | 79 W/m² | - |
| 1778078103 | 16.67° C | 99% | 1013.3 hPa | 3.05 mm | - | 81 W/m² | - |
| 1778077801 | 16.67° C | 99% | 1013.3 hPa | 3.56 mm | - | 67 W/m² | - |
| 1778077498 | 16.67° C | 99% | 1013.4 hPa | 4.83 mm | - | 39 W/m² | - |
* Rain latest hour (hover to see other rain measurements)
** Current wind speed in m/s (hover to see current wind gust speed)